sat.trackr.live / text

‹ back to catalog

STARLINK-30849

NORAD 58245 · 2023-171R

PAYLOAD ACTIVE UNKNOWN

§ Identity

Operator
Country
US
Launch date
2023-11-08
Launch site
AFETR
Launch vehicle
Mass (kg)
RCS (m²)

Purposes: comms

External: N2YO · Heavens-Above · Gunter

§ Orbital elements

Epoch: 2026-09-19T02:20:14.022528Z

Period
94.27 min
Inclination
43.0022°
Eccentricity
0.0001713
Mean motion
15.27577713 rev/d
Perigee alt
481.9 km
Apogee alt
484.2 km
Semi-major
6,861.2 km
B*
3.3522e-5
RAAN
272.9779°
Arg perigee
273.1473°
Mean anomaly
86.9182°
Rev number
15,931

§ Raw data

STARLINK-308491 58245U 23171R   26262.09738452  .00000660  00000+0  33522-4 0  99942 58245  43.0022 272.9779 0001713 273.1473  86.9182 15.27577713159317

JSON: /api/v1/satellites/58245 · /tle

For live sub-satellite position, see the globe view (requires WebGL).

§ Visibility from observer

Set your observer location to see the next 7 days of passes ≥ 10°. The values pass through the URL so the page stays shareable.

No JS? Fill the form by hand. The geolocation button needs JavaScript.